Flag for U.S.A. Weather past 2 weeks in Shiprock, New Mexico, U.S.A.

Now
39 °F

Clear.


Feels Like: 35 °F
Forecast: 40 / 79 °F
Wind: 6 mph from East

Location: Four Corners Regional Airport

Current Time: Mar 31, 2015 at 7:35:11 AM

Latest Report: Mar 31, 2015 at 6:53 AM


Visibility: 10 mi

Pressure: 30.06 "Hg

Humidity: 48%

Dew point: 21 °F

Location of ShiprockLocation

Historic Weather in Shiprock — Graph

°F

Shiprock temperature yesterday

Maximum temperature yesterday: 76 °F (at 2:53 PM)
Minimum temperature yesterday: 42 °F (at 6:53 AM)
Average temperature yesterday: 59 °F

Past Weeks' High & Low Weather Summary

 TemperatureHumidityPressure
High76 °F (Mar 28, 4:53 PM)88% (Mar 21, 6:53 AM)30.32 "Hg (Mar 21, 6:53 AM)
Low25 °F (Mar 26, 4:53 AM)8% (Mar 23, 5:53 PM)29.83 "Hg (Mar 19, 2:53 PM)
Average52 °F36%30.06 "Hg
* Reported Mar 16 5:53 AM — Mar 31 5:53 AM, Shiprock, Weather by CustomWeather, © 2015

Note: Actual official high and low records may vary slightly from our data, if they occured in-between our weather recording intervals... More about our weather records

Advertising

Shiprock weather history for previous 24 hours

 ConditionsComfort  
Time TempWeatherWind HumidityBarometerVisibility
5:53 AM
Tue, Mar 31
40 °FClear.8 mph45%30.04 "Hg10 mi
4:53 AM41 °FClear.9 mph43%30.02 "Hg10 mi
3:53 AM41 °FClear.7 mph43%30.02 "Hg10 mi
2:53 AM45 °FClear.6 mph37%30.02 "Hg10 mi
1:53 AM45 °FClear.7 mph35%30.03 "Hg10 mi
12:53 AM46 °FClear.9 mph33%30.04 "Hg10 mi
11:53 PM
Mon, Mar 30
48 °FClear.6 mph29%30.04 "Hg10 mi
10:53 PM49 °FClear.10 mph28%30.04 "Hg10 mi
9:53 PM56 °FClear.No wind22%30.04 "Hg10 mi
8:53 PM60 °FClear.5 mph17%30.04 "Hg10 mi
7:53 PM63 °FSunny.8 mph15%30.03 "Hg10 mi
6:53 PM70 °FSunny.10 mph10%30.01 "Hg10 mi
5:53 PM74 °FSunny.13 mph9%29.97 "Hg10 mi
4:53 PM76 °FSunny.14 mph9%29.97 "Hg10 mi
3:53 PM76 °FSunny.13 mph9%29.99 "Hg10 mi
2:53 PM76 °FSunny.9 mph9%30.02 "Hg10 mi
1:53 PM74 °FSunny.No wind10%30.06 "Hg10 mi
12:53 PM71 °FSunny.6 mph14%30.10 "Hg10 mi
11:53 AM68 °FSunny.6 mph19%30.12 "Hg10 mi
10:53 AM64 °FSunny.10 mph23%30.14 "Hg10 mi
9:53 AM57 °FSunny.9 mph26%30.16 "Hg10 mi
8:53 AM52 °FSunny.8 mph26%30.15 "Hg10 mi
7:53 AM46 °FClear.9 mph34%30.15 "Hg10 mi
Weather by CustomWeather, © 2015

See weather overviewHow to use our weather pages